Dewpoint
-17 -20 -12 -5 -8 -7 -6 -8 9 11 11 10 10 10 11 13 13 14 13 10 7 9 10 11 11 11 10 8 8 9 9 8 7 6 7 7 7 6 4 2 3 2 1 4 3 2 2 4 3
-20 -11 -4 -6 -7 -7 -5 11 11 11 10 11 11 11 12 13 14 14 11 9 9 10 11 12 11 11 10 9 8 8 9 8 7 6 6 6 5 5 5 5 2 0 -0 -0 2 2 3 4 3
-21 -8 -5 -6 -6 13 13 13 12 12 12 12 12 12 12 12 14 13 10 9 11 11 11 11 11 11 10 8 8 8 8 8 6 5 6 4 2 3 5 6 4 1 -1 -1 -1 -0 0 1 2
-13 -6 -7 -2 5 14 13 13 13 12 12 13 13 13 13 14 13 13 8 8 11 12 12 11 11 9 7 5 6 7 7 7 5 5 6 5 4 2 0 1 1 0 -1 -2 -2 -2 -2 -1 -1
-7 -7 -3 11 13 12 12 12 11 13 13 13 13 14 13 13 13 13 8 6 6 6 7 9 8 6 5 3 5 5 4 5 4 5 5 5 4 5 2 0 -0 -1 -1 -2 -2 -2 -3 -3 -3
-7 -8 1 10 11 10 12 13 11 12 13 13 13 13 13 13 12 9 7 7 5 3 4 5 6 7 5 5 5 4 2 3 4 5 5 6 4 4 3 2 2 1 0 -1 -1 -2 -2 -3 -3
-8 -5 -5 7 9 9 9 10 12 12 13 13 12 13 13 11 8 7 7 6 4 3 2 3 5 5 6 5 4 3 2 4 5 5 5 6 8 7 6 8 7 4 4 2 2 1 -1 -1 -1
-10 -6 -2 1 9 9 6 8 11 12 12 13 12 13 14 12 12 13 12 12 11 10 10 9 5 3 3 3 4 4 5 6 6 5 5 5 11 11 11 11 9 10 10 6 5 6 2 2 1
-9 -6 -2 7 8 7 6 7 9 10 12 12 11 12 13 13 14 13 13 11 12 11 12 12 11 9 8 4 10 7 8 6 5 8 9 9 12 12 12 12 12 12 12 11 10 10 9 3 5
-8 -6 -5 0 5 6 6 8 9 11 12 13 13 13 13 12 12 13 12 13 13 12 12 13 13 12 10 8 12 12 11 12 12 12 13 13 12 12 12 12 12 12 12 13 12 11 10 10 10
-8 -6 -0 4 5 6 6 6 7 10 9 13 13 13 11 10 10 10 9 8 9 11 13 13 13 13 12 12 13 13 12 13 12 11 12 12 11 11 12 11 11 11 11 12 11 11 11 11 11
-8 -7 4 5 5 5 4 7 6 7 8 11 13 11 10 9 9 8 8 8 8 8 10 10 11 14 14 14 14 14 14 13 14 13 13 13 13 13 13 13 11 12 12 12 12 11 11 12 12
-8 1 5 4 3 4 6 6 5 5 5 8 8 9 7 6 5 4 5 5 6 4 7 10 11 12 13 13 13 13 13 14 14 14 14 14 14 14 13 13 13 13 12 12 13 13 13 13 13
1 4 3 2 2 2 3 3 3 2 4 6 6 5 4 4 5 4 3 1 1 0 2 5 8 10 11 12 13 13 13 13 12 12 12 12 13 13 13 14 13 13 13 12 13 13 13 13 12
0 1 -0 -0 0 1 1 1 2 2 2 2 2 3 3 3 3 3 3 -0 -1 -2 -2 3 6 7 6 5 4 4 4 4 4 4 6 10 11 11 11 11 11 11 12 12 12 12 12 11 11
1 1 4 -0 -1 -1 -0 3 -1 1 2 2 1 2 2 2 2 5 7 -0 -2 -3 0 4 7 7 6 5 4 3 3 1 -0 0 2 4 6 7 9 9 9 9 9 8 8 8 7 7 7
-1 4 3 2 -1 -0 -0 2 -2 -1 1 0 1 1 1 1 1 1 1 2 3 -4 -0 4 8 8 6 5 4 3 2 -0 -1 -1 -0 0 2 2 2 2 2 2 2 2 2 2 1 0 0
2 3 2 3 0 -1 0 0 -2 -1 -0 -0 0 1 1 1 1 1 -0 -2 -2 -4 1 5 8 8 7 4 3 3 1 -1 -1 -2 -2 -2 -2 -2 -2 -2 -2 -1 -1 -1 -2 -2 -2 -3 -2
-0 1 3 1 -1 0 1 0 -1 -1 0 0 0 1 1 1 2 1 1 -1 -3 -3 0 4 6 7 5 4 4 2 -0 -1 -2 -4 -6 -5 -4 -3 -3 -4 -4 -6 -6 -8 -11 -15 -19 -26 -24
-1 1 1 -0 -1 -0 0 0 -2 -2 -1 -0 -0 0 0 1 0 -0 -2 -3 -5 -6 -0 2 4 4 4 4 4 1 -0 -1 -4 -9 -10 -12 -11 -12 -13 -16 -20 -28 -34 -36 -36 -36 -35 -35 -36
-1 -0 0 2 -0 -1 -0 1 -0 -2 -2 -1 -0 -0 -0 0 -1 -1 -1 -2 -3 -6 -6 -1 2 3 4 3 2 1 -0 -2 -8 -15 -18 -19 -22 -28 -33 -35 -36 -36 -36 -36 -36 -36 -36 -33 -32
-2 -3 -1 1 1 3 -0 4 1 -1 -2 -2 -1 -0 -0 0 -1 -1 -1 -3 -5 -5 -6 -7 1 2 2 2 1 0 -2 -6 -14 -19 -24 -28 -31 -34 -35 -36 -36 -36 -36 -36 -36 -36 -36 -36 -35
-4 -4 -1 0 1 1 1 2 0 -1 -0 -2 0 -0 -0 0 -1 -1 -3 -4 -4 -5 -5 -9 -4 1 1 1 0 -2 -8 -14 -15 -22 -31 -31 -32 -33 -34 -35 -35 -36 -36 -36 -36 -36 -35 -34 -33
-6 -2 -1 0 1 4 2 2 2 1 0 -2 -1 -0 -0 0 -1 -2 -3 -3 -3 -3 -4 -9 -8 -4 -2 -4 -7 -12 -16 -15 -18 -25 -31 -33 -33 -33 -33 -34 -34 -34 -35 -36 -36 -36 -35 -34 -32
-4 -0 4 5 6 6 1 2 2 -1 -1 -2 -2 0 -1 -0 -2 -3 -2 -2 -3 -3 -4 -7 -9 -7 -6 -8 -11 -11 -13 -16 -26 -28 -31 -32 -32 -33 -33 -34 -34 -33 -33 -35 -35 -36 -36 -35 -35
-4 -1 5 8 8 6 2 5 2 -2 -2 -3 -3 -1 -1 -1 -2 -3 -3 -3 -3 -3 -4 -6 -10 -9 -8 -9 -10 -15 -19 -25 -30 -31 -31 -31 -32 -33 -33 -33 -33 -33 -33 -35 -35 -36 -36 -35 -34
-1 1 0 2 1 3 1 1 -1 -2 -1 -2 -2 -1 -1 -1 -3 -2 -3 -4 -3 -3 -4 -5 -11 -10 -8 -9 -13 -17 -22 -26 -30 -31 -30 -30 -33 -33 -33 -34 -33 -32 -32 -33 -35 -36 -36 -34 -33
-1 -2 1 2 3 3 2 0 2 0 0 -0 -1 -1 -2 -2 -2 -3 -3 -3 -3 -4 -4 -4 -9 -12 -14 -15 -16 -18 -21 -25 -28 -30 -31 -31 -33 -33 -33 -33 -32 -29 -29 -31 -32 -34 -36 -35 -33
-2 -1 2 1 2 3 3 1 -1 -1 0 0 -1 -1 -2 -2 -3 -3 -3 -3 -3 -4 -4 -4 -7 -13 -11 -12 -15 -18 -22 -25 -28 -30 -31 -31 -33 -33 -32 -30 -28 -28 -28 -29 -31 -35 -35 -34 -32
-4 -1 0 3 -0 2 2 1 -0 -0 -1 -1 -1 -2 -2 -2 -3 -3 -3 -3 -3 -4 -4 -5 -6 -12 -13 -13 -16 -17 -19 -24 -28 -30 -32 -31 -31 -29 -27 -28 -28 -29 -29 -31 -31 -33 -34 -35 -34
Wind_Speed
9 7 5 1 3 4 2 3 2 3 2 6 10 5 11 17 3 3 8 8 17 19 18 18 17 15 14 14 14 14 15 15 16 15 14 13 11 11 11 12 13 12 11 11 10 11 11 10 10
8 4 1 4 4 2 3 5 7 2 6 15 18 11 15 5 10 13 16 14 17 19 19 19 17 15 12 12 12 13 13 14 14 14 14 12 11 11 11 11 11 11 11 11 9 9 9 8 9
4 5 1 4 3 2 1 5 11 19 18 9 6 14 6 3 9 12 15 16 18 20 20 19 16 14 11 10 12 11 11 12 13 13 13 12 11 9 9 10 11 11 10 10 9 8 7 6 5
2 0 3 4 4 1 3 2 11 14 18 16 7 8 6 8 6 11 19 19 18 19 19 17 16 13 11 11 11 11 11 11 11 11 11 10 10 9 9 8 8 10 11 10 8 7 7 6 5
3 2 4 4 3 2 3 5 7 8 6 14 8 5 5 8 14 17 15 18 19 18 17 16 14 12 11 11 10 9 9 10 11 11 10 9 9 9 9 9 9 8 8 7 6 7 6 5 5
3 1 4 3 3 4 3 3 9 13 18 11 12 7 7 16 17 17 17 18 19 18 18 17 15 13 12 10 9 8 8 8 9 9 9 8 8 9 9 9 9 8 7 6 5 3 2 2 2
5 3 5 7 5 3 5 8 13 11 17 10 24 5 8 18 22 21 19 20 20 19 19 18 17 15 14 12 10 8 8 9 8 8 7 7 8 8 9 11 10 9 7 6 5 4 3 2 2
4 4 6 5 9 4 5 5 11 18 6 21 14 5 10 27 22 21 19 19 19 19 18 18 17 16 14 13 13 11 9 8 8 7 6 7 6 6 8 8 9 10 9 8 6 6 4 4 4
4 4 2 5 8 7 15 5 6 8 17 13 13 6 22 30 26 23 18 17 16 16 16 15 15 16 15 15 14 12 11 9 8 7 6 6 5 4 5 4 2 2 3 3 3 3 4 3 4
4 4 8 6 8 12 12 8 15 10 17 16 21 24 28 25 24 23 19 17 15 13 13 12 12 12 12 13 12 12 11 9 9 8 7 4 2 0 0 1 3 3 4 5 4 4 3 2 3
4 6 3 4 21 22 14 4 3 25 3 16 32 33 27 27 23 20 18 15 13 11 10 10 9 9 9 10 10 9 8 8 8 8 7 6 6 6 6 6 7 8 8 7 7 8 8 8 10
3 1 8 17 21 20 9 15 7 8 11 20 25 31 30 26 21 17 15 13 11 9 9 8 9 10 8 8 7 7 7 7 7 9 9 8 9 10 11 11 9 11 10 11 11 10 12 11 12
4 2 16 23 18 20 24 14 12 21 26 28 31 30 27 24 21 16 10 10 10 10 10 8 7 9 11 10 10 10 8 9 10 10 11 10 10 11 11 11 12 12 14 15 15 16 17 18 16
5 13 16 20 21 18 17 21 6 18 27 31 30 27 24 20 15 13 10 7 7 9 9 8 8 7 8 9 11 11 11 11 11 10 10 8 9 10 14 15 14 15 16 18 17 18 18 19 20
14 8 9 3 4 10 19 6 6 31 33 36 31 24 20 17 15 11 9 5 4 5 6 7 9 7 5 5 5 4 3 4 5 5 5 5 7 9 9 11 11 11 12 14 14 15 18 16 19
6 5 6 4 3 9 0 4 4 22 27 23 29 23 20 17 12 10 12 6 3 3 6 7 8 7 5 4 3 2 2 3 4 4 4 3 3 4 7 10 12 12 12 13 14 16 16 17 17
4 6 5 3 3 3 4 6 4 22 27 19 23 22 20 18 13 11 10 7 5 5 7 6 9 8 6 4 3 4 6 6 6 6 6 6 5 5 5 5 5 5 6 7 8 9 11 11 10
5 7 1 6 7 3 6 4 8 20 25 24 23 21 19 17 14 11 10 7 7 7 8 7 9 8 7 5 4 4 7 8 8 8 8 7 7 7 7 7 7 7 8 8 9 10 11 11 9
7 8 5 2 5 5 2 5 13 18 17 21 24 22 20 18 16 12 8 8 9 9 10 11 12 11 9 5 2 4 6 8 8 8 9 9 8 8 8 8 9 9 10 13 13 12 13 13 13
7 10 4 3 4 5 2 0 3 7 10 25 28 24 23 19 17 14 10 9 9 9 10 13 12 11 9 5 4 1 3 7 8 8 9 10 10 11 12 12 14 14 13 15 16 18 19 21 22
4 10 6 8 5 5 7 4 5 5 7 19 26 28 27 25 22 18 14 10 8 9 8 10 13 14 10 8 4 3 4 8 8 9 11 12 12 13 14 15 16 16 17 19 20 21 22 23 24
6 7 9 15 8 5 4 4 6 9 8 13 21 26 29 28 23 20 16 12 9 9 8 8 11 12 11 7 3 1 3 7 10 10 12 12 13 14 15 16 16 17 18 20 22 22 22 22 23
7 11 12 12 8 6 3 1 4 12 11 11 24 36 36 32 28 24 20 15 12 8 7 8 12 13 12 9 5 6 6 6 10 11 12 12 13 14 15 15 15 17 18 19 19 20 21 22 22
7 7 5 4 4 2 10 6 3 9 26 15 21 31 40 37 32 25 21 17 15 12 8 9 11 12 10 9 9 7 7 9 10 11 11 12 13 13 13 14 14 16 16 17 19 19 19 21 21
7 8 3 2 1 4 3 2 9 12 12 23 26 32 39 41 36 31 28 23 17 13 10 9 12 13 11 9 9 10 10 10 9 10 10 11 11 11 13 13 13 14 16 17 18 19 19 21 21
9 10 5 5 4 3 5 7 10 9 20 28 28 26 33 41 38 35 30 23 18 16 12 10 12 13 12 11 11 10 11 10 10 10 9 9 10 11 12 12 12 13 13 16 18 19 20 20 20
4 12 9 7 1 4 4 6 8 2 6 17 26 34 39 44 42 37 31 25 21 18 15 11 13 14 13 11 11 11 10 10 10 10 9 8 9 10 9 10 10 11 12 15 18 19 20 21 21
12 9 5 3 6 4 3 4 7 6 9 10 16 30 35 42 44 38 34 29 23 18 16 13 11 14 13 12 11 11 10 9 8 9 8 7 7 7 7 8 9 10 12 15 18 19 21 21 21
4 3 5 5 4 6 3 6 7 10 11 19 23 32 39 47 47 42 37 31 24 21 18 15 14 15 15 13 11 11 10 9 9 8 7 7 6 5 6 8 9 11 12 15 17 19 20 21 21
6 8 7 5 5 1 4 6 2 6 9 19 24 30 34 43 46 43 40 34 28 24 22 19 17 15 14 13 12 12 10 8 8 7 6 5 5 5 6 7 8 10 12 13 15 17 19 21 22
Wind_Direction
325 310 311 171 56 64 257 275 103 51 119 41 68 90 98 43 17 143 148 157 153 145 146 145 144 143 136 131 125 118 114 111 115 120 117 113 105 97 91 87 88 88 85 94 99 103 103 97 98
330 308 179 120 91 49 296 320 108 91 113 111 65 57 47 62 77 113 143 152 143 142 144 143 142 143 140 137 133 126 121 117 116 117 115 111 109 105 98 88 81 86 91 96 99 101 102 103 107
344 319 188 97 99 36 222 26 112 88 81 66 80 55 43 22 93 133 152 143 141 140 141 140 141 142 143 141 138 129 122 118 119 120 116 109 104 100 102 103 98 90 88 96 103 107 106 105 111
18 323 50 75 98 333 198 131 110 111 71 60 41 64 45 44 111 138 148 140 139 141 141 141 143 148 151 148 143 135 127 121 118 115 111 105 99 97 96 91 87 98 107 111 110 112 116 121 131
89 85 69 84 80 35 86 103 36 79 68 78 47 71 56 87 144 149 144 141 136 139 140 141 145 148 147 144 140 134 129 125 122 117 110 105 101 96 90 88 86 81 76 85 106 123 130 134 143
88 84 96 115 133 99 64 194 114 99 108 92 71 73 55 120 149 140 140 134 130 136 134 135 136 138 136 134 130 126 119 116 114 107 100 96 96 98 93 88 81 74 73 75 74 63 61 97 135
115 92 152 132 145 118 172 119 144 145 132 153 150 117 122 133 138 144 141 134 133 135 134 133 134 135 134 132 124 119 116 115 113 106 102 101 87 87 81 72 60 56 52 53 44 30 17 348 311
124 95 132 156 167 182 156 124 138 136 118 141 130 141 160 153 151 144 141 140 142 140 139 136 136 135 133 130 124 120 120 126 128 127 134 137 123 105 99 66 67 62 50 53 46 22 352 331 318
161 71 173 158 158 144 149 141 130 123 134 142 156 185 162 147 149 152 152 151 150 147 147 146 144 141 137 136 131 136 138 142 144 133 128 133 138 118 127 104 76 38 9 0 22 28 24 351 354
109 143 201 191 147 145 176 148 143 124 124 109 120 141 146 152 155 154 160 158 158 154 154 155 158 156 152 149 154 156 157 150 147 153 160 161 141 138 317 251 306 291 299 299 298 302 309 333 342
150 191 132 45 125 132 142 115 128 127 73 147 139 139 151 155 155 157 145 148 153 160 167 176 177 166 162 166 180 188 186 191 188 193 197 218 220 232 241 249 264 275 261 276 280 284 278 284 290
132 12 125 142 144 136 140 123 85 97 131 145 143 150 152 149 147 134 134 136 140 153 162 179 190 198 190 194 171 198 203 208 220 226 230 235 243 250 253 250 258 264 269 270 280 280 282 286 292
138 130 131 145 139 137 132 108 110 95 128 143 141 152 145 138 129 127 129 130 137 145 152 157 169 195 202 202 205 212 216 231 242 246 248 254 261 264 262 265 267 271 274 280 282 282 284 286 288
104 93 112 142 129 131 119 126 98 135 143 133 142 138 137 137 137 134 124 122 141 139 148 146 161 167 179 193 207 223 234 247 254 262 264 270 279 273 281 277 279 281 282 284 290 293 292 291 288
109 89 67 33 105 116 113 28 127 149 146 136 137 140 144 149 156 144 131 139 142 142 163 161 177 167 174 172 185 205 237 274 293 300 298 265 271 287 281 282 287 297 292 292 297 295 292 295 291
98 64 118 253 186 166 91 177 140 159 151 137 143 148 151 155 172 173 152 170 162 151 176 170 181 181 177 161 152 121 60 15 4 356 342 326 304 284 285 289 288 290 294 298 299 296 297 299 300
23 148 120 175 201 147 63 128 184 164 154 134 148 152 152 152 154 154 153 186 177 190 178 183 185 188 188 169 130 88 59 54 57 58 58 57 54 44 21 10 9 353 336 326 331 328 321 317 317
164 107 152 169 193 85 102 129 153 167 155 152 161 156 159 161 167 170 168 167 162 177 164 182 186 197 193 171 133 81 61 59 66 64 62 59 54 50 40 41 44 32 30 31 25 16 11 17 30
128 118 137 151 146 92 10 138 175 175 165 163 167 163 163 161 161 173 189 165 167 164 169 171 172 180 194 175 105 41 55 65 65 68 70 62 55 52 53 48 52 42 36 40 38 32 30 35 41
148 132 131 77 88 87 94 164 170 185 186 176 177 178 176 175 172 176 181 169 152 157 173 177 177 176 191 219 265 323 75 92 79 80 80 76 73 73 70 66 64 58 54 52 48 40 35 34 36
175 157 167 145 125 53 115 350 205 216 209 199 197 194 190 191 183 178 173 168 160 152 165 175 184 191 206 224 225 155 118 106 103 94 89 82 77 76 71 68 64 58 51 47 43 39 36 38 37
158 184 143 134 136 180 192 236 213 198 198 196 200 201 196 194 191 180 179 188 177 163 170 176 178 183 184 185 191 217 152 124 104 93 89 89 83 77 70 63 59 55 50 46 41 35 33 31 37
202 157 159 161 150 113 213 139 252 180 208 202 196 203 202 199 193 187 188 184 181 173 178 181 185 179 179 192 219 211 167 129 113 107 98 90 82 74 68 61 58 54 48 45 40 37 32 31 29
143 99 58 91 111 191 200 169 243 178 216 204 199 199 198 198 192 189 183 179 177 170 175 176 185 180 183 187 177 174 152 137 131 113 101 91 84 77 71 63 56 56 52 47 41 37 32 33 29
130 121 124 101 244 211 125 203 246 216 215 202 197 195 190 195 189 184 181 177 181 181 177 175 177 168 173 177 166 157 143 142 126 112 100 91 86 81 72 63 59 54 49 44 38 33 29 29 24
178 169 149 152 180 238 185 221 237 232 210 209 210 190 183 192 191 188 184 184 184 186 181 176 174 171 167 165 163 155 148 141 128 115 104 100 88 76 67 60 56 51 45 39 34 29 26 24 21
193 180 166 113 352 107 199 267 320 194 151 174 181 179 184 191 191 187 186 189 186 190 189 183 178 175 173 175 174 160 148 138 128 119 111 99 83 76 68 61 53 48 39 35 31 26 22 20 16
157 154 132 1 137 197 256 243 219 191 176 162 169 180 179 184 188 187 188 186 187 192 191 184 186 183 173 173 174 163 152 139 131 123 118 106 95 84 71 60 48 45 36 30 26 21 18 12 9
119 160 59 109 129 160 159 255 220 211 175 185 190 181 176 181 186 186 187 187 191 193 197 193 194 190 178 177 176 169 158 153 142 131 124 114 104 91 68 51 41 34 29 23 18 12 10 8 5
154 165 149 148 233 94 148 263 285 269 203 191 183 178 176 181 185 187 188 186 188 192 197 198 195 192 184 184 185 178 167 151 142 139 131 120 93 72 60 44 32 26 22 16 9 6 4 2 1
Height
1495 1495 1494 1495 1507 1510 1511 1504 1497 1504 1503 1504 1504 1502 1508 1516 1517 1529 1527 1529 1530 1531 1533 1535 1537 1539 1540 1540 1541 1542 1542 1542 1542 1543 1543 1543 1544 1543 1543 1543 1543 1543 1543 1543 1544 1544 1544 1544 1544
1494 1494 1493 1492 1514 1519 1519 1502 1504 1501 1504 1505 1504 1508 1512 1523 1521 1525 1529 1531 1531 1532 1535 1536 1537 1540 1541 1541 1543 1543 1543 1543 1543 1544 1544 1544 1545 1544 1544 1544 1544 1544 1545 1545 1546 1547 1547 1547 1547
1493 1493 1492 1497 1517 1523 1518 1505 1502 1504 1505 1507 1513 1515 1522 1527 1526 1527 1530 1532 1533 1534 1536 1537 1539 1540 1542 1543 1544 1545 1545 1545 1545 1545 1545 1545 1546 1546 1546 1545 1545 1545 1546 1546 1547 1548 1549 1549 1549
1492 1493 1494 1505 1513 1512 1510 1508 1504 1505 1508 1511 1515 1521 1528 1529 1529 1530 1531 1534 1535 1536 1537 1538 1540 1541 1542 1543 1544 1545 1546 1546 1546 1546 1546 1547 1547 1547 1547 1547 1547 1546 1545 1546 1547 1548 1549 1549 1549
1492 1493 1503 1515 1514 1509 1508 1509 1509 1509 1515 1516 1518 1526 1529 1532 1533 1535 1535 1536 1537 1538 1539 1539 1541 1543 1543 1544 1545 1546 1547 1547 1548 1548 1548 1548 1547 1547 1547 1547 1547 1548 1548 1548 1548 1548 1548 1549 1549
1492 1494 1511 1521 1513 1510 1510 1509 1511 1511 1517 1523 1520 1524 1534 1536 1537 1538 1538 1538 1538 1539 1540 1540 1541 1544 1544 1545 1546 1547 1548 1549 1549 1550 1550 1549 1549 1548 1548 1548 1548 1548 1548 1549 1549 1550 1550 1550 1550
1491 1498 1507 1513 1514 1511 1511 1510 1510 1515 1515 1520 1524 1529 1537 1537 1538 1539 1540 1539 1539 1540 1540 1542 1542 1544 1544 1545 1546 1548 1549 1549 1550 1550 1550 1550 1550 1550 1550 1550 1549 1549 1549 1549 1549 1550 1550 1550 1551
1490 1494 1502 1506 1511 1512 1508 1507 1510 1513 1518 1521 1528 1530 1533 1532 1538 1540 1541 1541 1541 1541 1542 1543 1543 1543 1545 1546 1546 1548 1549 1549 1549 1550 1549 1549 1549 1550 1550 1550 1550 1550 1549 1549 1549 1549 1549 1549 1549
1489 1501 1507 1504 1507 1505 1507 1507 1510 1513 1514 1518 1525 1531 1533 1536 1537 1538 1541 1542 1543 1542 1543 1544 1544 1544 1545 1546 1547 1548 1548 1549 1549 1550 1550 1550 1551 1550 1550 1550 1549 1549 1549 1548 1548 1548 1547 1547 1548
1489 1500 1495 1490 1495 1501 1505 1505 1507 1513 1518 1523 1525 1529 1535 1536 1537 1538 1542 1543 1542 1542 1543 1544 1544 1544 1545 1546 1547 1548 1549 1549 1550 1550 1550 1551 1551 1551 1551 1550 1549 1549 1548 1548 1547 1547 1547 1547 1547
1490 1494 1487 1492 1492 1498 1505 1507 1509 1509 1521 1521 1522 1528 1533 1535 1538 1540 1540 1542 1541 1542 1543 1544 1545 1545 1546 1546 1548 1549 1549 1549 1550 1550 1550 1551 1551 1550 1550 1549 1548 1548 1547 1547 1546 1546 1546 1546 1545
1489 1487 1487 1494 1496 1500 1505 1507 1510 1511 1514 1519 1523 1526 1530 1532 1534 1538 1538 1539 1540 1541 1544 1544 1545 1546 1546 1547 1548 1549 1548 1548 1549 1549 1549 1549 1549 1549 1548 1548 1547 1546 1546 1545 1545 1544 1544 1544 1543
1487 1489 1492 1496 1499 1501 1503 1508 1509 1517 1519 1518 1523 1528 1531 1532 1532 1534 1538 1539 1539 1541 1543 1544 1545 1546 1546 1546 1548 1548 1547 1547 1548 1548 1548 1548 1548 1547 1546 1546 1545 1545 1544 1543 1543 1542 1541 1541 1541
1488 1491 1496 1502 1503 1505 1503 1511 1507 1521 1523 1520 1525 1529 1531 1533 1534 1536 1537 1540 1541 1541 1541 1544 1546 1547 1547 1546 1546 1546 1546 1545 1546 1546 1546 1546 1546 1546 1545 1544 1543 1543 1542 1541 1540 1539 1538 1537 1537
1489 1499 1502 1507 1505 1509 1508 1516 1518 1517 1523 1520 1524 1530 1533 1534 1538 1535 1536 1540 1544 1542 1542 1546 1546 1547 1548 1547 1546 1546 1545 1545 1545 1544 1544 1545 1545 1545 1544 1543 1542 1540 1539 1538 1537 1536 1535 1534 1534
1492 1499 1511 1509 1506 1508 1509 1525 1521 1522 1523 1520 1522 1531 1535 1537 1537 1534 1535 1541 1542 1543 1544 1546 1546 1545 1547 1548 1547 1546 1546 1545 1544 1543 1542 1542 1542 1542 1542 1542 1541 1539 1538 1536 1534 1534 1532 1531 1531
1496 1508 1510 1511 1506 1508 1510 1523 1522 1522 1521 1523 1526 1531 1533 1535 1537 1537 1539 1541 1538 1545 1547 1547 1546 1545 1546 1548 1548 1547 1547 1545 1545 1543 1542 1542 1541 1541 1541 1540 1540 1539 1537 1534 1533 1532 1531 1529 1528
1500 1507 1506 1509 1505 1508 1513 1517 1519 1521 1521 1522 1529 1531 1534 1535 1538 1539 1539 1541 1542 1543 1546 1546 1547 1545 1547 1548 1549 1549 1547 1546 1546 1544 1543 1543 1542 1541 1540 1541 1539 1539 1537 1534 1531 1531 1530 1527 1526
1488 1498 1504 1503 1502 1509 1514 1519 1517 1520 1524 1525 1529 1531 1536 1539 1541 1541 1542 1541 1542 1542 1546 1547 1548 1548 1548 1548 1548 1549 1547 1547 1547 1546 1546 1544 1543 1542 1541 1542 1540 1539 1537 1534 1532 1531 1529 1527 1525
1483 1496 1500 1502 1504 1510 1520 1522 1521 1521 1522 1523 1527 1531 1536 1539 1539 1541 1542 1542 1541 1543 1548 1550 1548 1548 1550 1549 1549 1550 1549 1549 1549 1549 1545 1545 1545 1544 1543 1543 1539 1540 1538 1535 1533 1532 1529 1526 1524
1483 1488 1498 1501 1509 1515 1518 1526 1524 1522 1522 1525 1527 1529 1533 1536 1538 1540 1542 1542 1544 1543 1547 1549 1550 1550 1550 1550 1549 1551 1549 1551 1550 1550 1547 1547 1547 1545 1544 1544 1541 1542 1540 1534 1533 1532 1531 1528 1524
1483 1479 1486 1497 1505 1521 1514 1531 1522 1519 1521 1522 1525 1527 1530 1533 1536 1538 1539 1542 1542 1545 1547 1548 1551 1551 1551 1550 1549 1551 1551 1551 1551 1550 1549 1550 1549 1547 1545 1545 1544 1543 1541 1538 1535 1535 1532 1531 1527
1475 1475 1483 1492 1504 1511 1516 1521 1511 1513 1518 1516 1515 1517 1522 1528 1532 1535 1538 1541 1544 1545 1548 1548 1551 1551 1552 1551 1549 1553 1551 1552 1553 1552 1550 1552 1550 1548 1548 1547 1545 1543 1541 1541 1540 1536 1534 1532 1529
1464 1477 1485 1493 1502 1521 1505 1511 1517 1513 1499 1507 1510 1511 1515 1523 1529 1535 1538 1540 1543 1545 1548 1547 1549 1549 1550 1551 1552 1553 1552 1554 1555 1553 1552 1552 1550 1551 1550 1549 1548 1545 1544 1542 1541 1539 1537 1533 1532
1462 1480 1509 1518 1517 1519 1501 1512 1500 1490 1487 1489 1495 1503 1509 1518 1526 1531 1534 1537 1540 1543 1546 1546 1548 1548 1551 1552 1553 1553 1553 1555 1554 1554 1554 1553 1553 1552 1551 1550 1549 1547 1547 1544 1543 1540 1539 1535 1533
1462 1470 1499 1507 1519 1515 1500 1507 1484 1476 1480 1485 1494 1501 1510 1517 1522 1526 1531 1534 1537 1541 1544 1547 1546 1548 1551 1553 1554 1555 1554 1553 1553 1555 1554 1556 1555 1553 1552 1551 1550 1548 1549 1546 1545 1541 1540 1537 1535
1461 1465 1467 1494 1499 1508 1502 1489 1478 1472 1477 1481 1489 1494 1500 1508 1515 1522 1528 1532 1536 1539 1543 1545 1546 1549 1550 1553 1555 1555 1555 1554 1553 1554 1555 1557 1554 1553 1553 1552 1552 1551 1550 1548 1544 1542 1541 1538 1535
1443 1455 1477 1491 1508 1499 1501 1490 1487 1475 1479 1481 1485 1487 1495 1502 1511 1519 1524 1529 1534 1538 1542 1545 1548 1549 1549 1552 1555 1555 1554 1554 1555 1554 1555 1556 1555 1555 1554 1555 1554 1553 1551 1548 1545 1543 1541 1539 1535
1451 1457 1468 1476 1487 1496 1510 1496 1468 1466 1468 1471 1473 1479 1486 1494 1503 1513 1521 1527 1532 1537 1540 1544 1546 1548 1549 1552 1554 1555 1554 1555 1555 1555 1556 1556 1557 1556 1556 1556 1555 1552 1550 1547 1545 1544 1541 1539 1535
1438 1448 1455 1481 1495 1500 1501 1494 1461 1462 1463 1465 1470 1477 1486 1492 1500 1510 1518 1524 1529 1534 1539 1542 1545 1546 1548 1551 1553 1554 1554 1554 1554 1555 1555 1557 1556 1556 1557 1556 1555 1553 1551 1549 1547 1545 1542 1538 1534